This is the latest recevied weather packets stored in our database for station/object K0APR. If no packets are shown the sender has not sent any weather packets the latest 10 day(s).
| Time | Temp. | Humidity | Pressure | Rain* | Wind** | Luminosity | Snow |
|---|---|---|---|---|---|---|---|
| 1788201266 | 26.67° C | 57% | 1013.7 hPa | 0 mm | - | 662 W/m² | - |
| 1788200960 | 27.22° C | 57% | 1013.7 hPa | 0 mm | - | 611 W/m² | - |
| 1788200655 | 27.22° C | 55% | 1013.7 hPa | 0 mm | - | 607 W/m² | - |
| 1788200350 | 27.22° C | 50% | 1013.3 hPa | 0 mm | - | 582 W/m² | - |
| 1788200046 | 26.11° C | 55% | 1013.7 hPa | 0 mm | - | 588 W/m² | - |
| 1788199746 | 26.67° C | 57% | 1013.7 hPa | 0 mm | - | 616 W/m² | - |
| 1788199440 | 26.67° C | 63% | 1013.7 hPa | 0 mm | - | 615 W/m² | - |
| 1788199140 | 26.11° C | 64% | 1013.7 hPa | 0 mm | - | 606 W/m² | - |
| 1788198836 | 25.56° C | 68% | 1013.7 hPa | 0 mm | - | 563 W/m² | - |
| 1788198532 | 26.11° C | 66% | 1013.7 hPa | 0 mm | - | 582 W/m² | - |
| 1788198227 | 25.56° C | 67% | 1013.3 hPa | 0 mm | - | 580 W/m² | - |
| 1788197926 | 25.56° C | 68% | 1013.7 hPa | 0 mm | - | 564 W/m² | - |
| 1788197626 | 25.56° C | 66% | 1013.7 hPa | 0 mm | - | 580 W/m² | - |
| 1788197321 | 25° C | 68% | 1013.7 hPa | 0 mm | - | 601 W/m² | - |
| 1788197017 | 25° C | 68% | 1013.7 hPa | 0 mm | - | 620 W/m² | - |
| 1788196716 | 25° C | 67% | 1013.7 hPa | 0 mm | - | 622 W/m² | - |
| 1788196413 | 25° C | 69% | 1013.7 hPa | 0 mm | - | 620 W/m² | - |
| 1788196110 | 25° C | 70% | 1013.7 hPa | 0 mm | - | 629 W/m² | - |
| 1788195806 | 25° C | 68% | 1013.7 hPa | 0 mm | - | 644 W/m² | - |
| 1788195502 | 25° C | 67% | 1013.7 hPa | 0 mm | - | 699 W/m² | - |
| 1788195198 | 24.44° C | 70% | 1013.7 hPa | 0 mm | - | 776 W/m² | - |
| 1788194894 | 25° C | 69% | 1013.7 hPa | 0 mm | - | 750 W/m² | - |
| 1788194590 | 24.44° C | 72% | 1013.7 hPa | 0 mm | - | 733 W/m² | - |
| 1788194285 | 24.44° C | 69% | 1014 hPa | 0 mm | - | 749 W/m² | - |
| 1788193981 | 24.44° C | 73% | 1013.7 hPa | 0 mm | - | 806 W/m² | - |
* Rain latest hour (hover to see other rain measurements)
** Current wind speed in m/s (hover to see current wind gust speed)